Location: K�ln
(50.9455°N, 6.9544°E)
Time: 00:19:38
(UTC+01:00)

ISS - Pass Details

Date: 05 January 2018
Orbit: 401 x 406 km, 51.6° (Epoch: 17 January)

Event Time Altitude Azimuth Distance (km) Brightness Sun altitude
Exits shadow 06:05:54 52° 77° (ENE) 512 -3.1 -22.2°
Drops below altitude 10° 06:08:29 10° 79° (E) 1,469 0.0 -21.8°
Sets 06:10:35 0° 80° (E) 2,331 1.3 -21.5°
